Wind_Speed
44 44 45 46 47 48 49 49 50 50 50 51 51 52 52 52 51 50 50 50 50 50 51 51 51 52 52 52 52 53 53 53 54 54 55 55 55 55 55 55 55 56 57
43 44 45 45 46 47 48 49 49 50 50 51 51 51 51 51 52 51 51 51 50 50 51 51 51 52 53 53 53 54 54 54 54 54 54 54 54 55 55 55 55 56 57
41 42 43 43 44 45 47 47 48 49 50 50 49 49 50 51 51 51 51 51 52 52 52 52 52 52 53 54 54 54 54 54 54 55 55 55 55 56 56 56 56 56 56
40 40 41 42 43 43 45 46 47 48 49 49 50 49 50 51 51 51 52 51 51 52 52 52 53 53 53 54 54 54 55 55 54 54 55 55 55 56 56 56 56 56 56
40 40 41 42 43 43 44 45 47 48 49 49 50 50 50 51 52 52 52 52 51 52 53 53 53 53 54 54 54 54 55 55 55 55 54 55 55 56 56 56 56 57 57
40 40 41 42 43 43 44 45 47 47 48 49 50 50 51 51 52 52 52 52 52 53 53 54 53 53 54 54 54 54 54 54 54 54 54 54 54 55 56 56 56 56 56
40 41 42 43 44 44 44 45 46 47 48 49 50 51 51 52 52 53 53 53 53 53 53 53 54 54 54 54 54 54 53 53 53 53 53 53 54 54 55 54 55 55 55
40 42 43 44 44 44 46 46 47 47 47 48 49 50 51 52 52 52 53 53 53 52 52 52 53 53 54 54 54 54 53 54 53 53 53 53 54 53 53 53 53 53 53
41 42 43 44 44 44 46 47 48 48 48 48 48 49 50 50 51 51 52 52 51 51 52 52 52 53 54 54 54 53 52 52 53 53 52 53 52 52 52 51 51 51 51
41 42 43 43 43 44 45 46 46 47 48 48 48 48 49 50 50 50 51 51 51 51 51 51 51 51 52 52 52 52 52 51 51 52 51 51 51 51 50 49 48 49 50
41 42 43 43 44 44 44 45 45 45 46 46 47 47 47 48 48 48 49 50 50 50 50 50 50 51 50 51 51 51 51 51 51 50 50 50 50 49 49 48 48 48 48
41 41 42 43 44 45 45 45 45 45 45 44 45 45 45 46 46 47 47 48 49 49 49 50 50 49 49 49 50 49 50 50 49 49 48 48 48 48 48 48 48 48 47
41 41 42 43 44 44 45 44 44 44 44 44 44 44 44 45 45 46 47 48 48 48 48 48 49 48 47 47 48 48 48 49 49 49 49 48 47 47 47 47 48 47 47
39 40 41 42 42 42 42 42 42 42 42 43 43 44 44 44 44 45 45 46 46 46 46 46 46 47 47 46 46 47 47 47 48 48 47 47 48 47 47 47 47 47 47
38 38 39 40 40 40 40 40 41 41 42 42 42 43 43 43 43 44 44 44 44 44 44 44 45 45 45 45 45 46 46 45 45 45 45 45 45 45 45 45 45 45 45
38 38 38 39 39 39 39 39 39 39 40 41 41 42 41 42 42 43 42 42 43 43 42 42 42 43 44 44 44 44 44 44 43 43 42 42 42 42 42 42 42 43 43
38 38 37 37 37 38 38 39 39 39 39 39 39 40 40 40 40 41 41 40 40 41 41 40 40 40 40 41 42 42 42 42 42 42 41 41 41 41 41 41 41 41 41
38 38 38 38 38 38 38 39 39 39 39 38 38 38 38 38 38 38 38 39 39 39 40 40 40 39 39 39 39 40 41 41 41 41 41 41 41 41 41 40 40 40 40
38 38 38 39 39 39 39 39 39 39 38 38 37 37 37 37 37 37 37 37 37 38 39 39 39 39 39 38 38 39 39 39 40 40 40 39 39 39 39 39 39 39 39
38 38 39 39 39 39 39 39 38 38 37 37 37 37 37 37 37 37 37 37 37 37 38 38 38 37 37 37 37 37 37 38 38 38 38 38 38 37 37 37 37 37 37
38 38 38 38 38 38 38 38 38 38 37 37 36 37 37 37 37 37 36 37 37 37 37 37 37 36 36 36 36 36 36 36 36 37 37 37 36 36 36 36 36 36 36
38 38 38 37 37 37 37 37 37 37 37 37 36 36 36 36 36 37 37 37 37 37 37 37 37 36 36 36 35 35 35 35 35 36 36 36 36 35 35 36 36 36 36
37 37 36 36 35 35 35 35 35 36 36 36 36 36 36 36 36 37 37 38 38 38 37 37 38 37 37 37 36 36 35 36 36 36 36 35 35 35 35 35 36 36 36
35 34 34 34 34 33 33 33 34 34 34 35 35 36 36 36 36 37 37 37 38 38 38 38 38 38 38 38 38 37 37 37 37 37 36 36 36 36 36 36 36 36 36
33 33 33 33 32 32 31 31 32 33 34 34 34 35 35 36 36 36 36 37 37 38 38 38 38 38 39 39 38 38 38 38 38 38 37 37 37 37 37 37 36 36 37
32 32 32 32 31 31 31 31 31 31 32 33 33 34 34 34 35 35 35 36 37 37 38 38 38 38 38 39 38 38 39 39 39 38 38 38 38 38 37 37 37 37 37
Wind_Direction
259 258 257 257 256 256 257 257 256 256 256 256 256 256 256 257 257 258 258 258 259 259 260 261 262 261 262 261 261 262 262 263 263 263 263 263 263 264 264 265 266 266 267
261 260 259 259 259 257 257 257 257 257 257 257 257 257 257 259 259 259 258 258 259 260 261 262 262 262 262 262 262 263 263 264 264 263 263 263 263 264 265 266 266 267 267
262 261 260 259 259 259 258 258 258 258 258 258 257 258 258 259 260 260 260 260 260 261 262 263 263 263 263 264 263 263 264 264 264 263 263 263 264 265 265 266 267 267 267
264 263 261 259 260 260 259 258 259 259 258 258 258 258 259 259 259 259 260 261 262 262 262 263 263 264 264 265 264 264 265 264 264 263 263 263 264 265 266 267 268 268 268
264 263 262 261 260 261 260 259 259 260 259 258 259 258 259 260 259 260 261 262 262 263 263 263 264 265 265 265 265 265 265 264 264 263 263 263 264 265 266 267 268 268 268
265 264 263 263 262 262 262 262 261 261 260 259 259 258 259 260 260 260 261 262 263 263 263 263 264 265 264 265 266 266 265 264 264 263 263 264 264 265 266 266 268 268 268
266 265 265 265 264 263 264 263 263 262 262 262 260 259 259 261 261 261 262 263 263 263 263 263 264 264 264 264 265 264 264 264 264 264 264 264 265 266 266 267 267 269 269
266 266 266 266 266 265 264 264 264 264 263 263 262 261 261 261 262 262 263 263 263 262 262 262 263 263 264 264 264 263 263 263 263 263 264 265 266 266 266 267 267 268 269
269 268 268 267 267 267 266 265 264 263 263 264 264 263 263 262 263 263 263 263 263 262 262 263 263 263 263 263 263 263 263 263 263 264 264 264 265 265 265 266 267 267 268
272 270 269 269 269 268 267 267 266 265 264 265 265 265 264 263 263 263 263 263 263 263 262 263 263 262 262 262 262 262 262 262 263 264 264 264 264 264 264 265 266 267 268
273 273 272 271 270 269 269 268 267 266 266 265 265 265 265 264 264 264 264 264 264 264 264 264 263 263 262 261 262 261 261 262 262 263 263 263 263 263 263 264 265 266 268
273 273 273 273 272 271 270 269 268 267 266 266 266 265 265 265 265 265 266 266 265 265 265 264 263 263 262 261 261 262 262 262 261 261 262 263 263 263 263 263 264 266 267
274 273 273 274 273 273 271 270 269 268 267 266 265 265 265 265 265 265 266 266 266 267 266 264 262 261 261 261 261 262 262 261 261 261 262 263 263 263 263 264 265 266 267
277 275 275 275 274 274 272 271 270 268 268 267 266 266 266 266 265 265 265 265 265 265 265 263 262 260 260 261 261 261 262 262 262 262 262 263 264 263 264 265 266 266 267
278 278 277 276 275 274 273 272 271 270 269 268 268 267 267 266 265 265 264 263 263 264 264 263 262 261 261 261 261 261 261 261 260 261 262 263 263 263 265 265 266 265 265
277 277 278 277 275 274 272 272 272 272 271 270 269 269 268 266 265 263 263 263 263 264 264 264 263 262 261 262 261 260 260 261 261 260 261 262 262 262 264 265 266 266 266
277 276 277 276 276 275 273 272 271 271 271 271 271 269 268 266 265 264 263 263 263 263 264 263 263 263 263 263 262 261 261 261 261 261 261 261 263 264 264 265 265 266 267
277 277 277 276 276 276 275 274 272 271 270 270 270 269 268 267 265 264 263 262 262 263 264 264 263 263 263 263 262 262 261 261 262 261 261 261 262 263 264 265 264 265 265
278 277 277 276 276 275 275 274 272 271 270 269 269 268 267 266 264 263 262 261 261 261 262 263 263 263 262 261 261 261 260 261 261 261 261 261 262 262 263 263 263 263 264
280 279 278 276 276 276 274 273 272 270 269 268 267 266 266 264 263 263 262 261 261 260 261 261 262 262 261 261 260 259 259 260 259 260 260 260 260 261 261 262 262 263 264
283 282 281 278 276 275 274 273 271 269 268 267 266 265 265 264 263 262 261 261 260 260 260 260 261 261 261 260 259 259 259 259 259 259 259 259 259 260 260 261 261 262 263
284 283 282 281 278 275 274 273 271 269 268 267 266 265 264 264 262 262 261 260 260 260 260 260 260 260 260 260 259 258 258 258 258 258 258 259 260 260 261 262 262 263 264
285 284 284 282 281 278 275 273 272 270 269 267 266 265 264 263 262 262 261 260 260 260 260 260 260 259 259 258 258 257 256 256 256 257 258 259 260 261 262 262 263 264 265
286 285 284 282 281 280 278 275 273 271 269 268 267 266 265 264 264 262 261 261 260 259 259 259 258 257 257 257 256 256 255 255 256 257 258 259 260 261 262 263 264 264 265
286 285 284 283 282 281 279 277 275 272 270 269 268 267 266 266 264 263 262 261 260 259 258 257 256 255 255 255 255 255 255 256 256 257 258 259 259 260 261 263 263 264 264
286 285 284 283 281 280 279 279 277 275 273 271 269 268 267 266 265 264 263 262 261 259 258 256 255 254 254 254 254 255 256 256 256 257 258 259 260 261 262 262 263 264 264
Height
5561 5562 5564 5566 5568 5569 5571 5573 5575 5577 5579 5581 5584 5587 5589 5590 5592 5594 5596 5597 5599 5601 5602 5604 5605 5607 5608 5610 5611 5613 5615 5617 5619 5622 5623 5624 5626 5627 5628 5629 5630 5631 5632
5548 5549 5551 5552 5554 5556 5558 5560 5562 5564 5566 5568 5570 5572 5574 5576 5578 5580 5582 5583 5585 5587 5588 5590 5591 5592 5594 5595 5597 5598 5600 5601 5604 5606 5607 5608 5610 5612 5613 5614 5614 5615 5616
5536 5537 5538 5540 5541 5542 5544 5546 5548 5550 5552 5554 5556 5558 5560 5562 5564 5566 5568 5569 5571 5572 5574 5575 5576 5577 5579 5580 5582 5583 5585 5586 5588 5590 5592 5593 5595 5596 5597 5598 5598 5599 5600
5524 5525 5526 5527 5529 5529 5530 5532 5534 5536 5538 5540 5542 5544 5546 5547 5549 5551 5553 5555 5557 5558 5559 5560 5562 5563 5564 5565 5566 5568 5569 5571 5572 5574 5576 5578 5579 5580 5581 5582 5583 5583 5584
5512 5513 5514 5515 5516 5516 5517 5519 5520 5522 5523 5525 5527 5529 5531 5533 5535 5537 5539 5541 5542 5543 5544 5545 5546 5547 5548 5550 5551 5553 5554 5555 5557 5558 5560 5562 5563 5564 5566 5566 5567 5568 5568
5500 5501 5501 5502 5502 5503 5504 5505 5506 5507 5509 5510 5512 5515 5516 5518 5520 5522 5524 5525 5527 5528 5529 5530 5531 5532 5533 5534 5535 5537 5538 5540 5541 5543 5544 5546 5548 5549 5549 5550 5551 5552 5553
5488 5488 5489 5489 5489 5490 5491 5491 5492 5493 5494 5496 5497 5499 5501 5503 5504 5506 5508 5509 5511 5512 5513 5514 5515 5516 5517 5518 5520 5521 5522 5524 5526 5527 5529 5530 5532 5533 5534 5534 5535 5535 5537
5476 5476 5476 5476 5476 5477 5477 5477 5478 5478 5479 5480 5482 5484 5486 5487 5488 5490 5491 5493 5494 5495 5497 5498 5499 5500 5501 5502 5504 5505 5507 5509 5510 5511 5513 5515 5516 5517 5518 5518 5519 5520 5521
5464 5464 5463 5463 5463 5463 5463 5463 5463 5464 5465 5466 5467 5469 5470 5472 5473 5474 5475 5476 5478 5480 5481 5482 5483 5484 5485 5486 5488 5490 5492 5493 5494 5495 5497 5498 5500 5501 5502 5503 5504 5504 5506
5452 5451 5450 5449 5449 5449 5449 5449 5449 5449 5450 5451 5453 5454 5455 5456 5457 5458 5459 5460 5462 5464 5465 5466 5468 5469 5470 5470 5472 5474 5477 5478 5479 5480 5482 5483 5484 5485 5486 5488 5489 5490 5492
5439 5438 5437 5436 5436 5435 5435 5435 5435 5435 5436 5437 5439 5439 5440 5441 5442 5443 5443 5444 5446 5448 5449 5451 5452 5453 5455 5456 5457 5459 5461 5463 5464 5466 5467 5469 5470 5471 5472 5474 5475 5476 5477
5426 5425 5424 5423 5422 5422 5421 5421 5421 5421 5422 5423 5424 5425 5425 5426 5427 5428 5428 5429 5430 5432 5434 5435 5437 5438 5440 5441 5442 5444 5446 5447 5449 5451 5453 5455 5456 5458 5459 5460 5461 5462 5463
5413 5412 5411 5410 5409 5408 5407 5407 5407 5407 5408 5409 5409 5410 5411 5412 5412 5413 5414 5415 5416 5417 5419 5420 5422 5423 5425 5427 5428 5429 5431 5433 5435 5437 5439 5441 5442 5444 5445 5446 5447 5448 5449
5401 5399 5398 5397 5395 5394 5394 5394 5394 5394 5394 5395 5395 5396 5397 5398 5398 5399 5399 5401 5402 5403 5404 5406 5408 5409 5411 5413 5414 5415 5417 5419 5421 5423 5425 5426 5428 5429 5431 5432 5433 5434 5435
5388 5387 5385 5384 5383 5382 5381 5381 5381 5381 5381 5382 5382 5382 5383 5384 5384 5385 5385 5387 5389 5390 5391 5392 5394 5396 5398 5399 5401 5402 5403 5405 5407 5409 5410 5412 5414 5415 5417 5418 5419 5420 5421
5376 5374 5373 5372 5370 5370 5369 5369 5368 5369 5369 5368 5369 5369 5369 5370 5370 5371 5372 5374 5375 5376 5378 5380 5381 5382 5384 5386 5387 5389 5390 5392 5394 5395 5397 5399 5400 5402 5403 5405 5406 5407 5408
5363 5362 5360 5359 5358 5357 5357 5357 5357 5357 5356 5356 5355 5355 5356 5356 5357 5358 5359 5361 5362 5363 5365 5367 5368 5370 5371 5372 5374 5376 5378 5379 5381 5382 5384 5386 5388 5389 5391 5392 5393 5394 5395
5351 5349 5348 5347 5346 5345 5344 5344 5343 5343 5344 5343 5343 5343 5343 5344 5344 5345 5347 5348 5350 5351 5352 5354 5356 5357 5358 5360 5362 5363 5365 5366 5368 5370 5372 5374 5375 5376 5378 5379 5380 5382 5383
5339 5337 5336 5335 5333 5332 5331 5331 5330 5330 5330 5330 5331 5331 5331 5331 5332 5333 5334 5336 5337 5339 5340 5342 5343 5345 5346 5348 5349 5351 5353 5355 5356 5358 5360 5361 5363 5364 5366 5367 5368 5370 5371
5326 5324 5323 5321 5320 5319 5318 5317 5317 5317 5317 5317 5318 5318 5318 5319 5320 5321 5322 5324 5325 5327 5328 5330 5331 5333 5334 5336 5338 5339 5341 5343 5344 5346 5348 5349 5351 5352 5354 5355 5357 5358 5359
5314 5312 5310 5308 5307 5306 5305 5304 5304 5304 5304 5304 5305 5305 5306 5306 5308 5309 5310 5311 5313 5315 5316 5318 5319 5321 5322 5324 5326 5327 5329 5331 5333 5335 5336 5338 5340 5341 5343 5344 5346 5347 5348
5302 5299 5297 5296 5294 5293 5292 5291 5291 5291 5291 5291 5292 5293 5293 5294 5295 5296 5298 5299 5301 5302 5304 5306 5307 5309 5310 5312 5314 5316 5318 5320 5321 5323 5325 5327 5329 5330 5332 5333 5334 5335 5336
5289 5287 5285 5283 5282 5280 5279 5279 5278 5278 5278 5279 5279 5280 5280 5281 5282 5283 5285 5286 5288 5290 5292 5293 5295 5297 5298 5300 5302 5305 5307 5309 5310 5312 5314 5316 5318 5319 5321 5322 5323 5324 5325
5277 5275 5273 5272 5270 5269 5268 5267 5266 5266 5266 5266 5267 5267 5268 5269 5270 5271 5272 5273 5275 5277 5279 5280 5283 5284 5286 5288 5290 5293 5295 5297 5299 5301 5303 5305 5306 5308 5309 5311 5312 5313 5314
5266 5264 5262 5260 5259 5258 5256 5255 5255 5254 5254 5254 5255 5255 5256 5256 5257 5258 5259 5261 5262 5264 5265 5267 5269 5272 5274 5276 5278 5281 5283 5285 5287 5289 5291 5293 5294 5296 5298 5299 5300 5301 5302
5255 5253 5251 5250 5248 5247 5246 5245 5244 5243 5243 5243 5243 5243 5244 5244 5245 5246 5247 5248 5249 5251 5253 5254 5257 5259 5261 5263 5266 5268 5270 5273 5275 5277 5279 5281 5282 5284 5285 5287 5288 5289 5290